User: anonymous   Login
Location: Fort Wayne
(41.1310°N, 85.1290°W)
Time: 02:47:06
(UTC-04:00)
Language:

Cosmos 1000 Rocket - Orbit

View from above orbital plane
View from above orbital plane
View from above satellite
View from above satellite

Ground track
Ground track

The orbit data is extracted from the following two-line orbital elements,

1 10777U 78034B   17147.90431288 +.00000047 +00000-0 +31782-4 0  9995
2 10777 082.9442 245.6521 0024776 253.7031 229.0184 13.77382083967599
Epoch (UTC): 27 May 2017 21:42:12
Eccentricity: 0.0024776
inclination: 82.9442°
perigee height: 955 km
apogee height: 991 km
right ascension of ascending node: 245.6521°
argument of perigee: 253.7031°
revolutions per day: 13.77382083
mean anomaly at epoch: 229.0184°
orbit number at epoch: 96759

The dashed part of the orbit path shows where the satellite is in the earth's shadow,  

DLR